User: anonymous   Login
Location: Goheenville
(40.9070°N, 79.3720°W)
Time: 07:29:23
(UTC-05:00)
Language:

Meteor 2-10 Rocket - Orbit

View from above orbital plane
View from above orbital plane
View from above satellite
View from above satellite

Ground track
Ground track

The orbit data is extracted from the following two-line orbital elements,

1 14453U 83109B   16341.46181718  .00000059  00000-0  19287-4 0  9994
2 14453  81.1664 300.1745 0103870 261.2238  97.7167 14.24662048720089
Epoch (UTC): 06 December 2016 11:05:01
Eccentricity: 0.0103870
inclination: 81.1664°
perigee height: 735 km
apogee height: 884 km
right ascension of ascending node: 300.1745°
argument of perigee: 261.2238°
revolutions per day: 14.24662048
mean anomaly at epoch: 97.7167°
orbit number at epoch: 72008

The dashed part of the orbit path shows where the satellite is in the earth's shadow,  

DLR